Back to catalog

METEOR 2-5 DEB

LostPO
NORAD 39607·DEBRIS·🇷🇺 Russia

Launched Oct 31, 1979 from Plesetsk Cosmodrome

Loading…

Next Passes (next 24 hours)

TLE

StaleSource: Space-Track

Epoch: Aug 12, 2015, 09:39 UTC

1 39607U 79095CJ  15224.40242439 +.00007031 +00000-0 +32618-2 0  9990
2 39607 081.2080 109.1706 0016895 246.3328 115.8184 14.20536630154544

Track METEOR 2-5 DEB in real time with AllMySat

Download on the App Store